This is the latest recevied weather packets stored in our database for station/object DC4AT. If no packets are shown the sender has not sent any weather packets the latest 10 day(s).
| Time | Temp. | Humidity | Pressure | Rain* | Wind** | Luminosity | Snow |
|---|---|---|---|---|---|---|---|
| 1777715623 | 21.67° C | 41% | 1020.7 hPa | 0 mm | - | 673 W/m² | - |
| 1777715023 | 21.11° C | 43% | 1020.9 hPa | 0 mm | - | 663 W/m² | - |
| 1777714423 | 21.11° C | 41% | 1021.1 hPa | 0 mm | - | 652 W/m² | - |
| 1777713823 | 20.56° C | 43% | 1021.1 hPa | 0 mm | - | 640 W/m² | - |
| 1777713224 | 20.56° C | 45% | 1021.2 hPa | 0 mm | - | 628 W/m² | - |
| 1777712624 | 20° C | 53% | 1021.2 hPa | 0 mm | - | 612 W/m² | - |
| 1777712023 | 19.44° C | 55% | 1021.2 hPa | 0 mm | - | 594 W/m² | - |
| 1777711423 | 19.44° C | 55% | 1021.2 hPa | 0 mm | - | 575 W/m² | - |
| 1777710824 | 18.89° C | 56% | 1021.3 hPa | 0 mm | - | 561 W/m² | - |
| 1777710224 | 18.89° C | 56% | 1021.3 hPa | 0 mm | - | 547 W/m² | - |
| 1777709624 | 18.33° C | 58% | 1021.4 hPa | 0 mm | - | 529 W/m² | - |
| 1777709024 | 17.78° C | 58% | 1021.4 hPa | 0 mm | - | 499 W/m² | - |
| 1777708424 | 17.22° C | 60% | 1021.6 hPa | 0 mm | - | 473 W/m² | - |
| 1777707824 | 16.67° C | 58% | 1021.7 hPa | 0 mm | - | 468 W/m² | - |
| 1777707224 | 16.67° C | 57% | 1021.9 hPa | 0 mm | - | 445 W/m² | - |
| 1777706624 | 16.67° C | 59% | 1022.1 hPa | 0 mm | - | 422 W/m² | - |
| 1777706024 | 16.67° C | 58% | 1022.1 hPa | 0 mm | - | 397 W/m² | - |
| 1777705424 | 16.11° C | 61% | 1022.2 hPa | 0 mm | - | 378 W/m² | - |
| 1777704824 | 16.11° C | 60% | 1022.2 hPa | 0 mm | - | 255 W/m² | - |
| 1777704224 | 15.56° C | 61% | 1022.2 hPa | 0 mm | - | 330 W/m² | - |
| 1777703624 | 15° C | 64% | 1022.2 hPa | 0 mm | - | 306 W/m² | - |
| 1777703024 | 13.89° C | 67% | 1022.2 hPa | 0 mm | - | 281 W/m² | - |
| 1777702424 | 13.33° C | 69% | 1022.2 hPa | 0 mm | - | 257 W/m² | - |
| 1777701824 | 12.22° C | 71% | 1022.4 hPa | 0 mm | - | 227 W/m² | - |
| 1777701224 | 12.22° C | 72% | 1022.4 hPa | 0 mm | - | 211 W/m² | - |
* Rain latest hour (hover to see other rain measurements)
** Current wind speed in m/s (hover to see current wind gust speed)